Time,TemperatureF,DewpointF,PressureIn,WindDirection,WindDirectionDegrees,WindSpeedMPH,WindSpeedGustMPH,Humidity,HourlyPrecipIn,Conditions,Clouds,dailyrainin,SoftwareType,DateUTC
2013-03-04 00:04:00,27.9,10.7,26.37,ESE,118,6.0,15.0,48,0.00,,,-99.99,Weather View 32 v70,2013-03-04 06:04:00,
2013-03-04 00:14:00,27.3,12.4,26.37,SE,137,8.0,15.0,53,0.00,,,-99.99,Weather View 32 v70,2013-03-04 06:14:00,
2013-03-04 00:24:00,27.0,13.7,26.37,SSE,158,12.0,15.0,57,0.00,,,-99.99,Weather View 32 v70,2013-03-04 06:24:00,
2013-03-04 00:29:00,26.8,14.8,26.37,SSE,158,4.0,15.0,60,0.00,,,-99.99,Weather View 32 v70,2013-03-04 06:29:00,
2013-03-04 00:35:00,26.4,15.5,26.37,SSE,155,11.0,15.0,63,0.00,,,-99.99,Weather View 32 v70,2013-03-04 06:35:00,
2013-03-04 00:40:00,26.4,16.2,26.37,SSE,163,6.0,15.0,65,0.00,,,-99.99,Weather View 32 v70,2013-03-04 06:40:00,
2013-03-04 00:50:00,26.2,16.4,26.37,SE,140,9.0,15.0,66,0.00,,,-99.99,Weather View 32 v70,2013-03-04 06:50:00,
2013-03-04 00:57:00,26.2,16.4,26.37,SSE,164,10.0,15.0,66,0.00,,,-99.99,Weather View 32 v70,2013-03-04 06:57:00,
2013-03-04 01:05:00,26.2,16.8,26.37,SSE,157,5.0,15.0,67,0.00,,,-99.99,Weather View 32 v70,2013-03-04 07:05:00,
2013-03-04 01:15:00,26.2,17.1,26.37,East,79,8.0,15.0,68,0.00,,,-99.99,Weather View 32 v70,2013-03-04 07:15:00,
2013-03-04 01:20:00,26.2,17.5,26.37,SSE,147,5.0,14.0,69,0.00,,,-99.99,Weather View 32 v70,2013-03-04 07:20:00,
2013-03-04 01:30:00,26.4,18.9,26.37,SE,126,8.0,13.0,73,0.00,,,-99.99,Weather View 32 v70,2013-03-04 07:30:00,
2013-03-04 01:35:00,26.2,19.4,26.37,ESE,106,9.0,13.0,75,0.00,,,-99.99,Weather View 32 v70,2013-03-04 07:35:00,
2013-03-04 01:45:00,26.2,20.3,26.37,ESE,107,10.0,13.0,78,0.00,,,-99.99,Weather View 32 v70,2013-03-04 07:45:00,
2013-03-04 01:55:00,26.4,21.1,26.37,ESE,119,8.0,13.0,80,0.00,,,-99.99,Weather View 32 v70,2013-03-04 07:55:00,
2013-03-04 02:05:00,26.4,21.7,26.37,ESE,121,8.0,13.0,82,0.00,,,-99.99,Weather View 32 v70,2013-03-04 08:05:00,
2013-03-04 02:10:00,26.6,22.1,26.37,SSE,150,5.0,13.0,83,0.00,,,-99.99,Weather View 32 v70,2013-03-04 08:10:00,
2013-03-04 02:20:00,26.6,22.7,26.37,East,85,8.0,15.0,85,0.00,,,-99.99,Weather View 32 v70,2013-03-04 08:20:00,
2013-03-04 02:25:00,26.8,22.9,26.37,ESE,122,6.0,15.0,85,0.00,,,-99.99,Weather View 32 v70,2013-03-04 08:25:00,
2013-03-04 02:34:00,26.8,23.2,26.37,SSE,165,6.0,15.0,86,0.00,,,-99.99,Weather View 32 v70,2013-03-04 08:34:00,
2013-03-04 02:40:00,26.8,23.4,26.37,ESE,121,6.0,15.0,87,0.00,,,-99.99,Weather View 32 v70,2013-03-04 08:40:00,
2013-03-04 02:49:00,27.0,23.6,26.37,South,177,8.0,15.0,87,0.00,,,-99.99,Weather View 32 v70,2013-03-04 08:49:00,
2013-03-04 02:54:00,27.0,23.6,26.37,ESE,106,6.0,15.0,87,0.00,,,-99.99,Weather View 32 v70,2013-03-04 08:54:00,
2013-03-04 03:04:00,27.0,23.3,26.37,SE,127,10.0,15.0,86,0.00,,,-99.99,Weather View 32 v70,2013-03-04 09:04:00,
2013-03-04 03:14:00,27.0,23.3,26.37,SSE,148,5.0,15.0,86,0.00,,,-99.99,Weather View 32 v70,2013-03-04 09:14:00,
2013-03-04 03:24:00,27.0,23.6,26.37,SE,146,6.0,15.0,87,0.00,,,-99.99,Weather View 32 v70,2013-03-04 09:24:00,
2013-03-04 03:30:00,27.0,23.6,26.37,South,178,8.0,15.0,87,0.00,,,-99.99,Weather View 32 v70,2013-03-04 09:30:00,
2013-03-04 03:40:00,27.0,23.9,26.37,SSE,152,8.0,15.0,88,0.00,,,-99.99,Weather View 32 v70,2013-03-04 09:40:00,
2013-03-04 03:50:00,27.0,23.9,26.37,SSE,151,9.0,13.0,88,0.00,,,-99.99,Weather View 32 v70,2013-03-04 09:50:00,
2013-03-04 03:55:00,27.0,23.9,26.37,SE,137,9.0,13.0,88,0.00,,,-99.99,Weather View 32 v70,2013-03-04 09:55:00,
2013-03-04 04:05:00,27.0,24.2,26.37,SE,144,8.0,13.0,89,0.00,,,-99.99,Weather View 32 v70,2013-03-04 10:05:00,
2013-03-04 04:10:00,27.1,24.3,26.37,SE,125,10.0,13.0,89,0.00,,,-99.99,Weather View 32 v70,2013-03-04 10:10:00,
2013-03-04 04:20:00,27.1,24.6,26.37,SE,133,8.0,13.0,90,0.00,,,-99.99,Weather View 32 v70,2013-03-04 10:20:00,
2013-03-04 04:25:00,27.3,24.8,26.37,SE,127,8.0,13.0,90,0.00,,,-99.99,Weather View 32 v70,2013-03-04 10:25:00,
2013-03-04 04:35:00,27.3,25.0,26.37,ESE,120,9.0,13.0,91,0.00,,,-99.99,Weather View 32 v70,2013-03-04 10:35:00,
2013-03-04 04:45:00,27.5,25.2,26.37,SSE,147,9.0,13.0,91,0.00,,,-99.99,Weather View 32 v70,2013-03-04 10:45:00,
2013-03-04 04:55:00,27.5,25.5,26.37,SSE,152,8.0,13.0,92,0.00,,,-99.99,Weather View 32 v70,2013-03-04 10:55:00,
2013-03-04 05:00:00,27.7,25.9,26.37,South,171,5.0,13.0,93,0.00,,,-99.99,Weather View 32 v70,2013-03-04 11:00:00,
2013-03-04 05:10:00,27.5,25.7,26.37,SSE,152,4.0,13.0,93,0.00,,,-99.99,Weather View 32 v70,2013-03-04 11:10:00,
2013-03-04 05:20:00,27.3,25.8,26.37,SE,139,8.0,13.0,94,0.00,,,-99.99,Weather View 32 v70,2013-03-04 11:20:00,
2013-03-04 05:30:00,27.3,25.8,26.37,SE,141,6.0,13.0,94,0.00,,,-99.99,Weather View 32 v70,2013-03-04 11:30:00,
2013-03-04 05:40:00,27.3,25.8,26.37,SE,126,6.0,13.0,94,0.00,,,-99.99,Weather View 32 v70,2013-03-04 11:40:00,
2013-03-04 05:50:00,27.3,25.8,26.37,SE,135,6.0,13.0,94,0.00,,,-99.99,Weather View 32 v70,2013-03-04 11:50:00,
2013-03-04 06:00:00,27.3,26.1,26.37,South,173,6.0,13.0,95,0.00,,,-99.99,Weather View 32 v70,2013-03-04 12:00:00,
2013-03-04 06:09:00,27.3,26.1,26.37,SE,129,5.0,13.0,95,0.00,,,-99.99,Weather View 32 v70,2013-03-04 12:09:00,
2013-03-04 06:14:00,27.3,26.1,26.37,SSE,156,6.0,13.0,95,0.00,,,-99.99,Weather View 32 v70,2013-03-04 12:14:00,
2013-03-04 06:24:00,27.5,26.3,26.37,SSE,160,6.0,13.0,95,0.00,,,-99.99,Weather View 32 v70,2013-03-04 12:24:00,
2013-03-04 06:34:00,27.5,26.3,26.37,SSE,151,9.0,13.0,95,0.00,,,-99.99,Weather View 32 v70,2013-03-04 12:34:00,
2013-03-04 06:44:00,27.5,26.3,26.37,SSE,152,5.0,12.0,95,0.00,,,-99.99,Weather View 32 v70,2013-03-04 12:44:00,
2013-03-04 06:54:00,27.5,26.3,26.37,SSE,166,6.0,12.0,95,0.00,,,-99.99,Weather View 32 v70,2013-03-04 12:54:00,
2013-03-04 07:00:00,27.5,26.3,26.37,ESE,117,8.0,12.0,95,0.00,,,-99.99,Weather View 32 v70,2013-03-04 13:00:00,
2013-03-04 07:09:00,27.5,26.3,26.37,SE,143,8.0,12.0,95,0.00,,,-99.99,Weather View 32 v70,2013-03-04 13:09:00,
2013-03-04 07:14:00,27.5,26.3,26.37,ESE,112,5.0,12.0,95,0.00,,,-99.99,Weather View 32 v70,2013-03-04 13:14:00,
2013-03-04 07:24:00,27.5,26.3,26.37,SE,145,6.0,12.0,95,0.00,,,-99.99,Weather View 32 v70,2013-03-04 13:24:00,
2013-03-04 07:30:00,27.7,26.4,26.37,SSE,163,6.0,12.0,95,0.00,,,-99.99,Weather View 32 v70,2013-03-04 13:30:00,
2013-03-04 07:40:00,27.7,26.7,26.37,South,179,4.0,12.0,96,0.00,,,-99.99,Weather View 32 v70,2013-03-04 13:40:00,
2013-03-04 07:45:00,27.9,26.9,26.37,ESE,106,8.0,12.0,96,0.00,,,-99.99,Weather View 32 v70,2013-03-04 13:45:00,
2013-03-04 07:55:00,27.9,26.9,26.37,SSE,148,5.0,12.0,96,0.00,,,-99.99,Weather View 32 v70,2013-03-04 13:55:00,
2013-03-04 08:00:00,27.9,26.9,26.37,SSE,156,10.0,13.0,96,0.00,,,-99.99,Weather View 32 v70,2013-03-04 14:00:00,
2013-03-04 08:10:00,27.9,26.9,26.37,SE,146,8.0,13.0,96,0.00,,,-99.99,Weather View 32 v70,2013-03-04 14:10:00,
2013-03-04 08:15:00,27.9,26.9,26.37,SE,140,8.0,13.0,96,0.00,,,-99.99,Weather View 32 v70,2013-03-04 14:15:00,
2013-03-04 08:25:00,27.9,26.9,26.37,SSE,151,5.0,13.0,96,0.00,,,-99.99,Weather View 32 v70,2013-03-04 14:25:00,
2013-03-04 08:35:00,27.9,26.9,26.37,SE,141,6.0,13.0,96,0.00,,,-99.99,Weather View 32 v70,2013-03-04 14:35:00,
2013-03-04 08:45:00,27.9,26.9,26.37,SE,128,5.0,13.0,96,0.00,,,-99.99,Weather View 32 v70,2013-03-04 14:45:00,
2013-03-04 08:50:00,27.9,26.9,26.37,SSE,164,4.0,13.0,96,0.00,,,-99.99,Weather View 32 v70,2013-03-04 14:50:00,
2013-03-04 08:55:00,28.0,27.0,26.37,SSE,153,6.0,13.0,96,0.00,,,-99.99,Weather View 32 v70,2013-03-04 14:55:00,
2013-03-04 09:01:00,28.0,27.0,26.37,ESE,123,6.0,13.0,96,0.00,,,-99.99,Weather View 32 v70,2013-03-04 15:01:00,
2013-03-04 09:10:00,28.0,27.0,26.37,SSE,159,8.0,13.0,96,0.00,,,-99.99,Weather View 32 v70,2013-03-04 15:10:00,
2013-03-04 09:14:00,28.0,27.0,26.37,South,174,5.0,13.0,96,0.00,,,-99.99,Weather View 32 v70,2013-03-04 15:14:00,
2013-03-04 09:19:00,28.0,27.0,26.37,SSE,158,11.0,13.0,96,0.00,,,-99.99,Weather View 32 v70,2013-03-04 15:19:00,
2013-03-04 09:24:00,28.2,27.2,26.37,SE,128,5.0,12.0,96,0.00,,,-99.99,Weather View 32 v70,2013-03-04 15:24:00,
2013-03-04 09:34:00,28.2,27.0,26.37,SSE,154,8.0,11.0,95,0.00,,,-99.99,Weather View 32 v70,2013-03-04 15:34:00,
2013-03-04 09:39:00,28.2,27.0,26.37,SSE,158,4.0,11.0,95,0.00,,,-99.99,Weather View 32 v70,2013-03-04 15:39:00,
2013-03-04 09:49:00,28.0,26.5,26.37,SSE,150,5.0,13.0,94,0.00,,,-99.99,Weather View 32 v70,2013-03-04 15:49:00,
2013-03-04 09:54:00,28.2,26.7,26.37,SE,127,5.0,13.0,94,0.00,,,-99.99,Weather View 32 v70,2013-03-04 15:54:00,
2013-03-04 10:01:00,28.2,26.7,26.37,SSE,168,9.0,13.0,94,0.00,,,-99.99,Weather View 32 v70,2013-03-04 16:01:00,
2013-03-04 10:09:00,28.0,26.3,26.37,SE,146,5.0,13.0,93,0.00,,,-99.99,Weather View 32 v70,2013-03-04 16:09:00,
2013-03-04 10:19:00,28.0,26.0,26.37,SSE,148,3.0,13.0,92,0.00,,,-99.99,Weather View 32 v70,2013-03-04 16:19:00,
2013-03-04 10:24:00,28.0,25.8,26.37,SE,142,8.0,13.0,91,0.00,,,-99.99,Weather View 32 v70,2013-03-04 16:24:00,
2013-03-04 10:30:00,28.0,25.8,26.37,SSE,160,8.0,13.0,91,0.00,,,-99.99,Weather View 32 v70,2013-03-04 16:30:00,
2013-03-04 10:35:00,28.0,25.8,26.37,SSE,165,10.0,13.0,91,0.00,,,-99.99,Weather View 32 v70,2013-03-04 16:35:00,
2013-03-04 10:40:00,28.0,25.5,26.37,SE,139,6.0,13.0,90,0.00,,,-99.99,Weather View 32 v70,2013-03-04 16:40:00,
2013-03-04 10:45:00,28.0,25.5,26.37,SE,138,8.0,13.0,90,0.00,,,-99.99,Weather View 32 v70,2013-03-04 16:45:00,
2013-03-04 10:55:00,27.9,25.0,26.37,SSE,163,12.0,13.0,89,0.00,,,-99.99,Weather View 32 v70,2013-03-04 16:55:00,
2013-03-04 11:03:00,27.9,24.8,26.37,SSE,157,5.0,13.0,88,0.00,,,-99.99,Weather View 32 v70,2013-03-04 17:03:00,
2013-03-04 11:10:00,27.9,24.8,26.37,SSE,159,8.0,13.0,88,0.00,,,-99.99,Weather View 32 v70,2013-03-04 17:10:00,
2013-03-04 11:15:00,27.9,24.8,26.37,ESE,120,8.0,13.0,88,0.00,,,-99.99,Weather View 32 v70,2013-03-04 17:15:00,
2013-03-04 11:25:00,27.9,24.8,26.37,ESE,119,10.0,13.0,88,0.00,,,-99.99,Weather View 32 v70,2013-03-04 17:25:00,
2013-03-04 11:30:00,28.0,24.9,26.37,South,189,8.0,13.0,88,0.00,,,-99.99,Weather View 32 v70,2013-03-04 17:30:00,
2013-03-04 11:35:00,28.0,24.9,26.37,SSE,165,10.0,13.0,88,0.00,,,-99.99,Weather View 32 v70,2013-03-04 17:35:00,
2013-03-04 11:40:00,28.2,25.1,26.37,SE,142,6.0,13.0,88,0.00,,,-99.99,Weather View 32 v70,2013-03-04 17:40:00,
2013-03-04 11:50:00,27.9,24.8,26.37,South,176,9.0,17.0,88,0.00,,,-99.99,Weather View 32 v70,2013-03-04 17:50:00,
2013-03-04 11:55:00,28.2,25.4,26.37,SSE,163,13.0,17.0,89,0.00,,,-99.99,Weather View 32 v70,2013-03-04 17:55:00,
2013-03-04 12:03:00,28.2,25.7,26.37,SSE,152,6.0,17.0,90,0.00,,,-99.99,Weather View 32 v70,2013-03-04 18:03:00,
2013-03-04 12:10:00,28.4,26.1,26.37,ESE,120,8.0,17.0,91,0.00,,,-99.99,Weather View 32 v70,2013-03-04 18:10:00,
2013-03-04 12:15:00,28.6,26.3,26.37,South,172,8.0,17.0,91,0.00,,,-99.99,Weather View 32 v70,2013-03-04 18:15:00,
2013-03-04 12:24:00,28.8,26.7,26.37,ESE,114,5.0,17.0,92,0.00,,,-99.99,Weather View 32 v70,2013-03-04 18:24:00,
2013-03-04 12:29:00,28.6,26.8,26.37,SSE,148,6.0,17.0,93,0.00,,,-99.99,Weather View 32 v70,2013-03-04 18:29:00,
2013-03-04 12:34:00,28.6,26.8,26.37,ESE,122,8.0,17.0,93,0.00,,,-99.99,Weather View 32 v70,2013-03-04 18:34:00,
2013-03-04 12:39:00,28.6,26.8,26.37,SSE,151,6.0,17.0,93,0.00,,,-99.99,Weather View 32 v70,2013-03-04 18:39:00,
2013-03-04 12:44:00,28.6,27.1,26.37,South,170,10.0,17.0,94,0.00,,,-99.99,Weather View 32 v70,2013-03-04 18:44:00,
2013-03-04 12:49:00,28.8,27.3,26.37,ESE,110,8.0,16.0,94,0.00,,,-99.99,Weather View 32 v70,2013-03-04 18:49:00,
2013-03-04 12:54:00,28.8,27.3,26.37,SSE,148,7.0,16.0,94,0.00,,,-99.99,Weather View 32 v70,2013-03-04 18:54:00,
2013-03-04 12:59:00,28.6,27.1,26.37,SE,141,8.0,16.0,94,0.00,,,-99.99,Weather View 32 v70,2013-03-04 18:59:00,
2013-03-04 13:09:00,28.8,27.5,26.37,ESE,109,3.0,16.0,95,0.00,,,-99.99,Weather View 32 v70,2013-03-04 19:09:00,
2013-03-04 13:14:00,28.8,27.5,26.37,SSE,152,9.0,13.0,95,0.00,,,-99.99,Weather View 32 v70,2013-03-04 19:14:00,
2013-03-04 13:19:00,28.8,27.5,26.37,SE,143,5.0,13.0,95,0.00,,,-99.99,Weather View 32 v70,2013-03-04 19:19:00,
2013-03-04 13:30:00,28.8,27.5,26.37,South,172,6.0,13.0,95,0.00,,,-99.99,Weather View 32 v70,2013-03-04 19:30:00,
2013-03-04 13:35:00,28.8,27.5,26.37,SE,141,6.0,13.0,95,0.00,,,-99.99,Weather View 32 v70,2013-03-04 19:35:00,
2013-03-04 13:40:00,28.8,27.5,26.37,ESE,112,4.0,13.0,95,0.00,,,-99.99,Weather View 32 v70,2013-03-04 19:40:00,
2013-03-04 13:50:00,29.1,27.9,26.37,SW,226,8.0,13.0,95,0.00,,,-99.99,Weather View 32 v70,2013-03-04 19:50:00,
2013-03-04 13:55:00,29.1,27.9,26.37,SE,139,6.0,13.0,95,0.00,,,-99.99,Weather View 32 v70,2013-03-04 19:55:00,
2013-03-04 14:04:00,29.1,27.9,26.37,SSE,152,7.0,13.0,95,0.00,,,-99.99,Weather View 32 v70,2013-03-04 20:04:00,
2013-03-04 14:10:00,28.9,27.7,26.37,South,187,6.0,13.0,95,0.00,,,-99.99,Weather View 32 v70,2013-03-04 20:10:00,
2013-03-04 14:15:00,29.1,27.9,26.37,SSE,148,6.0,13.0,95,0.00,,,-99.99,Weather View 32 v70,2013-03-04 20:15:00,
2013-03-04 14:20:00,29.1,27.9,26.37,ESE,121,6.0,13.0,95,0.00,,,-99.99,Weather View 32 v70,2013-03-04 20:20:00,
2013-03-04 14:30:00,29.3,28.0,26.37,South,181,6.0,13.0,95,0.00,,,-99.99,Weather View 32 v70,2013-03-04 20:30:00,
2013-03-04 14:35:00,29.5,28.0,26.37,SE,142,4.0,13.0,94,0.00,,,-99.99,Weather View 32 v70,2013-03-04 20:35:00,
2013-03-04 14:45:00,29.5,28.0,26.37,ESE,114,6.0,13.0,94,0.00,,,-99.99,Weather View 32 v70,2013-03-04 20:45:00,
2013-03-04 14:55:00,29.5,28.0,26.37,South,181,8.0,13.0,94,0.00,,,-99.99,Weather View 32 v70,2013-03-04 20:55:00,
2013-03-04 15:00:00,29.3,27.8,26.37,ESE,116,6.0,13.0,94,0.00,,,-99.99,Weather View 32 v70,2013-03-04 21:00:00,
2013-03-04 15:05:00,29.3,27.8,26.37,ESE,119,6.0,13.0,94,0.00,,,-99.99,Weather View 32 v70,2013-03-04 21:05:00,
2013-03-04 15:14:00,29.3,27.8,26.37,South,171,6.0,13.0,94,0.00,,,-99.99,Weather View 32 v70,2013-03-04 21:14:00,
2013-03-04 15:19:00,29.3,27.8,26.37,SSE,159,6.0,13.0,94,0.00,,,-99.99,Weather View 32 v70,2013-03-04 21:19:00,
2013-03-04 15:24:00,29.1,27.3,26.37,SE,143,5.0,13.0,93,0.00,,,-99.99,Weather View 32 v70,2013-03-04 21:24:00,
2013-03-04 15:29:00,29.1,27.3,26.37,SE,139,9.0,13.0,93,0.00,,,-99.99,Weather View 32 v70,2013-03-04 21:29:00,
2013-03-04 15:39:00,29.1,27.3,26.37,ESE,112,8.0,13.0,93,0.00,,,-99.99,Weather View 32 v70,2013-03-04 21:39:00,
2013-03-04 15:49:00,28.9,27.2,26.37,SSE,148,6.0,13.0,93,0.00,,,-99.99,Weather View 32 v70,2013-03-04 21:49:00,
2013-03-04 15:54:00,28.9,26.9,26.37,SSE,167,10.0,13.0,92,0.00,,,-99.99,Weather View 32 v70,2013-03-04 21:54:00,
2013-03-04 15:59:00,28.9,26.9,26.37,South,189,9.0,11.0,92,0.00,,,-99.99,Weather View 32 v70,2013-03-04 21:59:00,
2013-03-04 16:05:00,28.8,26.7,26.37,SE,131,8.0,11.0,92,0.00,,,-99.99,Weather View 32 v70,2013-03-04 22:05:00,
2013-03-04 16:14:00,28.8,26.5,26.37,South,173,8.0,11.0,91,0.00,,,-99.99,Weather View 32 v70,2013-03-04 22:14:00,
2013-03-04 16:19:00,28.8,26.5,26.37,SSE,159,3.0,11.0,91,0.00,,,-99.99,Weather View 32 v70,2013-03-04 22:19:00,
2013-03-04 16:25:00,28.6,26.3,26.37,SE,141,5.0,11.0,91,0.00,,,-99.99,Weather View 32 v70,2013-03-04 22:25:00,
2013-03-04 16:35:00,28.8,26.5,26.37,ESE,118,5.0,11.0,91,0.00,,,-99.99,Weather View 32 v70,2013-03-04 22:35:00,
2013-03-04 16:40:00,28.8,26.5,26.37,SE,143,3.0,11.0,91,0.00,,,-99.99,Weather View 32 v70,2013-03-04 22:40:00,
2013-03-04 16:45:00,28.8,26.2,26.37,SSE,147,5.0,11.0,90,0.00,,,-99.99,Weather View 32 v70,2013-03-04 22:45:00,
2013-03-04 16:55:00,28.6,26.0,26.37,SE,142,8.0,12.0,90,0.00,,,-99.99,Weather View 32 v70,2013-03-04 22:55:00,
2013-03-04 17:00:00,28.8,26.2,26.37,South,175,7.0,12.0,90,0.00,,,-99.99,Weather View 32 v70,2013-03-04 23:00:00,
2013-03-04 17:06:00,28.6,26.0,26.37,ESE,120,5.0,12.0,90,0.00,,,-99.99,Weather View 32 v70,2013-03-04 23:06:00,
2013-03-04 17:15:00,28.4,25.8,26.37,SE,131,6.0,12.0,90,0.00,,,-99.99,Weather View 32 v70,2013-03-04 23:15:00,
2013-03-04 17:20:00,28.2,25.7,26.37,SE,130,4.0,12.0,90,0.00,,,-99.99,Weather View 32 v70,2013-03-04 23:20:00,
2013-03-04 17:30:00,28.0,25.2,26.37,East,87,5.0,12.0,89,0.00,,,-99.99,Weather View 32 v70,2013-03-04 23:30:00,
2013-03-04 17:35:00,27.9,25.0,26.37,SE,133,8.0,12.0,89,0.00,,,-99.99,Weather View 32 v70,2013-03-04 23:35:00,
2013-03-04 17:40:00,27.9,24.8,26.37,SE,131,6.0,12.0,88,0.00,,,-99.99,Weather View 32 v70,2013-03-04 23:40:00,
2013-03-04 17:50:00,27.7,24.6,26.37,ESE,105,6.0,12.0,88,0.00,,,-99.99,Weather View 32 v70,2013-03-04 23:50:00,
2013-03-04 17:59:00,27.5,24.1,26.37,ESE,121,8.0,12.0,87,0.00,,,-99.99,Weather View 32 v70,2013-03-04 23:59:00,
2013-03-04 18:04:00,27.5,24.1,26.37,SE,128,5.0,12.0,87,0.00,,,-99.99,Weather View 32 v70,2013-03-05 00:04:00,
2013-03-04 18:09:00,27.5,24.4,26.37,ESE,109,5.0,12.0,88,0.00,,,-99.99,Weather View 32 v70,2013-03-05 00:09:00,
2013-03-04 18:14:00,27.5,24.4,26.37,SSE,154,6.0,12.0,88,0.00,,,-99.99,Weather View 32 v70,2013-03-05 00:14:00,
2013-03-04 18:19:00,27.3,24.0,26.37,SSE,156,6.0,12.0,87,0.00,,,-99.99,Weather View 32 v70,2013-03-05 00:19:00,
2013-03-04 18:29:00,27.3,24.0,26.37,SE,124,10.0,12.0,87,0.00,,,-99.99,Weather View 32 v70,2013-03-05 00:29:00,
2013-03-04 18:34:00,27.1,23.8,26.37,SE,140,6.0,12.0,87,0.00,,,-99.99,Weather View 32 v70,2013-03-05 00:34:00,
2013-03-04 18:44:00,27.1,23.8,26.37,SE,143,5.0,12.0,87,0.00,,,-99.99,Weather View 32 v70,2013-03-05 00:44:00,
2013-03-04 18:54:00,27.0,23.6,26.37,East,97,5.0,11.0,87,0.00,,,-99.99,Weather View 32 v70,2013-03-05 00:54:00,
2013-03-04 19:04:00,27.1,24.1,26.37,South,178,3.0,11.0,88,0.00,,,-99.99,Weather View 32 v70,2013-03-05 01:04:00,
2013-03-04 19:09:00,27.1,24.1,26.37,ESE,110,6.0,11.0,88,0.00,,,-99.99,Weather View 32 v70,2013-03-05 01:09:00,
2013-03-04 19:19:00,27.0,23.9,26.37,SE,146,6.0,13.0,88,0.00,,,-99.99,Weather View 32 v70,2013-03-05 01:19:00,
2013-03-04 19:25:00,27.0,23.9,26.37,SE,126,5.0,13.0,88,0.00,,,-99.99,Weather View 32 v70,2013-03-05 01:25:00,
2013-03-04 19:30:00,27.0,23.9,26.37,South,172,4.0,13.0,88,0.00,,,-99.99,Weather View 32 v70,2013-03-05 01:30:00,
2013-03-04 19:35:00,27.0,24.2,26.37,SE,133,3.0,13.0,89,0.00,,,-99.99,Weather View 32 v70,2013-03-05 01:35:00,
2013-03-04 19:45:00,27.0,24.2,26.37,SSE,162,4.0,13.0,89,0.00,,,-99.99,Weather View 32 v70,2013-03-05 01:45:00,
2013-03-04 19:50:00,27.0,24.2,26.37,SSE,162,4.0,13.0,89,0.00,,,-99.99,Weather View 32 v70,2013-03-05 01:50:00,
2013-03-04 19:55:00,27.0,24.2,26.37,East,88,6.0,13.0,89,0.00,,,-99.99,Weather View 32 v70,2013-03-05 01:55:00,
2013-03-04 20:05:00,26.8,24.0,26.37,SE,131,4.0,13.0,89,0.00,,,-99.99,Weather View 32 v70,2013-03-05 02:05:00,
2013-03-04 20:10:00,26.8,24.0,26.37,SSE,154,2.0,13.0,89,0.00,,,-99.99,Weather View 32 v70,2013-03-05 02:10:00,
2013-03-04 20:20:00,26.8,24.0,26.37,SE,144,6.0,11.0,89,0.00,,,-99.99,Weather View 32 v70,2013-03-05 02:20:00,
2013-03-04 20:30:00,26.6,24.1,26.37,SSE,160,4.0,11.0,90,0.00,,,-99.99,Weather View 32 v70,2013-03-05 02:30:00,
2013-03-04 20:40:00,26.6,24.1,26.37,South,179,8.0,11.0,90,0.00,,,-99.99,Weather View 32 v70,2013-03-05 02:40:00,
2013-03-04 20:45:00,26.6,23.8,26.37,East,91,3.0,11.0,89,0.00,,,-99.99,Weather View 32 v70,2013-03-05 02:45:00,
2013-03-04 20:50:00,26.6,23.8,26.37,South,172,4.0,11.0,89,0.00,,,-99.99,Weather View 32 v70,2013-03-05 02:50:00,
2013-03-04 21:00:00,26.6,23.8,26.37,West,268,5.0,11.0,89,0.00,,,-99.99,Weather View 32 v70,2013-03-05 03:00:00,
2013-03-04 21:08:00,26.6,24.1,26.37,SE,144,5.0,9.0,90,0.00,,,-99.99,Weather View 32 v70,2013-03-05 03:08:00,
2013-03-04 21:14:00,26.6,24.1,26.37,SSE,152,5.0,9.0,90,0.00,,,-99.99,Weather View 32 v70,2013-03-05 03:14:00,
2013-03-04 21:19:00,26.6,24.1,26.37,SE,126,4.0,9.0,90,0.00,,,-99.99,Weather View 32 v70,2013-03-05 03:19:00,
2013-03-04 21:24:00,26.6,24.1,26.37,SSE,149,5.0,9.0,90,0.00,,,-99.99,Weather View 32 v70,2013-03-05 03:24:00,
2013-03-04 21:34:00,26.6,24.1,26.37,SE,134,5.0,9.0,90,0.00,,,-99.99,Weather View 32 v70,2013-03-05 03:34:00,
2013-03-04 21:39:00,26.6,24.1,26.37,South,179,3.0,9.0,90,0.00,,,-99.99,Weather View 32 v70,2013-03-05 03:39:00,
2013-03-04 21:44:00,26.6,24.1,26.37,East,90,4.0,9.0,90,0.00,,,-99.99,Weather View 32 v70,2013-03-05 03:44:00,
2013-03-04 21:54:00,26.6,24.1,26.37,SE,130,3.0,9.0,90,0.00,,,-99.99,Weather View 32 v70,2013-03-05 03:54:00,
2013-03-04 22:04:00,26.4,23.9,26.37,East,90,5.0,9.0,90,0.00,,,-99.99,Weather View 32 v70,2013-03-05 04:04:00,
2013-03-04 22:14:00,26.4,24.1,26.37,SE,134,6.0,9.0,91,0.00,,,-99.99,Weather View 32 v70,2013-03-05 04:14:00,
2013-03-04 22:19:00,26.4,24.1,26.37,SSE,153,3.0,9.0,91,0.00,,,-99.99,Weather View 32 v70,2013-03-05 04:19:00,
2013-03-04 22:25:00,26.4,24.1,26.37,ESE,111,0.0,9.0,91,0.00,,,-99.99,Weather View 32 v70,2013-03-05 04:25:00,
2013-03-04 22:30:00,26.6,24.3,26.37,East,93,3.0,9.0,91,0.00,,,-99.99,Weather View 32 v70,2013-03-05 04:30:00,
2013-03-04 22:40:00,26.4,24.1,26.37,East,81,0.0,8.0,91,0.00,,,-99.99,Weather View 32 v70,2013-03-05 04:40:00,
2013-03-04 22:45:00,26.4,24.1,26.37,SE,145,4.0,8.0,91,0.00,,,-99.99,Weather View 32 v70,2013-03-05 04:45:00,
2013-03-04 22:50:00,26.4,24.1,26.37,South,169,5.0,8.0,91,0.00,,,-99.99,Weather View 32 v70,2013-03-05 04:50:00,
2013-03-04 23:00:00,26.4,24.1,26.37,SSE,154,4.0,8.0,91,0.00,,,-99.99,Weather View 32 v70,2013-03-05 05:00:00,
2013-03-04 23:05:00,26.4,24.1,26.37,East,89,4.0,8.0,91,0.00,,,-99.99,Weather View 32 v70,2013-03-05 05:05:00,
2013-03-04 23:10:00,26.4,24.1,26.37,East,89,4.0,8.0,91,0.00,,,-99.99,Weather View 32 v70,2013-03-05 05:10:00,
2013-03-04 23:15:00,26.2,24.0,26.37,SE,137,5.0,8.0,91,0.00,,,-99.99,Weather View 32 v70,2013-03-05 05:15:00,
2013-03-04 23:25:00,26.4,24.4,26.37,East,101,0.0,8.0,92,0.00,,,-99.99,Weather View 32 v70,2013-03-05 05:25:00,
2013-03-04 23:30:00,26.2,24.2,26.37,East,86,4.0,8.0,92,0.00,,,-99.99,Weather View 32 v70,2013-03-05 05:30:00,
2013-03-04 23:35:00,26.4,24.4,26.37,East,85,0.0,8.0,92,0.00,,,-99.99,Weather View 32 v70,2013-03-05 05:35:00,
2013-03-04 23:45:00,26.4,24.4,26.37,ESE,102,4.0,8.0,92,0.00,,,-99.99,Weather View 32 v70,2013-03-05 05:45:00,
2013-03-04 23:50:00,26.4,24.7,26.37,East,85,4.0,6.0,93,0.00,,,-99.99,Weather View 32 v70,2013-03-05 05:50:00,